Hourly Data Report for June 05, 2017

ATIKOKAN (AUT)
ONTARIO

48°45'40.000" N
91°37'41.000" W
389.30 m
6020LPQ
71747
WCH

Download Data

Hourly Data (June 2017)
Hourly Data Report for June 5, 2017
TIME
LST
Temp Definition
°C
Dew Point Definition
°C
Rel Hum Definition
%
Precip. Amount Definition
mm

Wind Dir Definition
10's deg

Wind Spd Definition
km/h
Visibility Definition
km
Stn Press Definition
kPa
Hmdx Definition


Wind Chill Definition


Weather Definition


00:00 11.3 10.1 92 0.0 6 1   96.91     LegendNANA
01:00 10.2 9.0 93 0.0   0   96.93     LegendNANA
02:00 9.3 8.4 94 0.0 0 1   96.98     LegendNANA
03:00 8.6 7.8 95 0.0   0   97.00     LegendNANA
04:00 8.3 7.6 96 0.0 9 1   97.06     LegendNANA
05:00 8.4 7.7 96 0.0   0   97.11     LegendNANA
06:00 11.1 10.1 94 0.0   0   97.16     LegendNANA
07:00 15.8 11.8 77 0.0 8 2   97.19     LegendNANA
08:00 18.3 12.2 68 0.0 9 5   97.24     LegendNANA
09:00 20.0 11.4 58 0.0 5 5   97.25     LegendNANA
10:00 22.5 8.7 41 0.0 6 9   97.25     LegendNANA
11:00 23.0 8.8 40 0.0 7 13   97.25     LegendNANA
12:00 23.7 7.6 36 0.0 10 9   97.21     LegendNANA
13:00 24.0 5.8 31 0.0 8 11   97.18     LegendNANA
14:00 24.4 4.0 27 0.0 10 8   97.16     LegendNANA
15:00 25.1 2.9 24 0.0 5 7   97.13     LegendNANA
16:00 24.8 4.2 26 0.0 11 7   97.10     LegendNANA
17:00 24.8 3.1 24 0.0 11 6   97.09     LegendNANA
18:00 24.0 2.5 24 0.0 8 4   97.10     LegendNANA
19:00 22.7 2.6 27 0.0 15 3   97.13     LegendNANA
20:00 16.1 5.6 50 0.0   0   97.18     LegendNANA
21:00 13.0 8.7 75 0.0 4 1   97.24     LegendNANA
22:00 11.5 9.2 86 0.0 8 2   97.29     LegendNANA
23:00 9.9 7.4 84 0.0 0 1   97.35     LegendNANA

Notes on Data Quality.

Legend

  • E = Estimated
  • M = Missing
  • NA = Not Available*
  • [empty] = Indicates an unobserved value
Date modified: